Location: El Álamo
(40.2307°N, 3.9945°W)
Time: 15:27:02
(UTC+00:00)

CZ-4B R/B - Pass Details

Date: 19 May 2025
Orbit: 449 x 582 km, 97.8° (Epoch: 22 June)

Event Time Altitude Azimuth Distance (km) Brightness Sun altitude
Exits shadow 20:16:50 - 154° (SSE) 2,041 5.2 -8.6°
Reaches altitude 10° 20:17:14 10° 153° (SSE) 1,878 5.0 -8.7°
Maximum altitude 20:21:14 57° 74° (ENE) 668 3.0 -9.3°
Drops below altitude 10° 20:25:09 10° 356° (N) 1,835 6.1 -9.9°
Sets 20:27:16 0° 353° (N) 2,712 7.1 -10.2°
